Location: Strawberry
(45.6646°N, 111.9596°W)
Time: 10:11:55
(UTC+00:00)

RS-15 - Visible Passes

Search period start: 30 November 2022 00:00
Search period end: 10 December 2022 00:00
Orbit: 1882 x 2163 km, 64.8° (Epoch: 29 November)

Date Brightness Start Highest point End Pass type
(mag) Time Alt. Az. Time Alt. Az. Time Alt. Az.
30 Nov 8.6 02:08:50 10° NW 02:20:04 38° NNE 02:23:18 33° NE visible
30 Nov 8.4 04:22:18 10° NW 04:31:04 55° NNW 04:31:04 55° NNW visible
30 Nov 9.7 06:35:54 10° NW 06:38:49 18° WNW 06:38:49 18° WNW visible
01 Dec 8.8 01:32:16 10° NW 01:43:14 34° NNE 01:48:40 25° ENE visible
01 Dec 8.2 03:46:08 10° NW 03:56:26 62° N 03:56:26 62° N visible
01 Dec 9.4 05:59:23 10° NW 06:04:12 26° WNW 06:04:12 26° WNW visible
02 Dec 8.9 00:55:34 10° NW 01:06:17 32° N 01:14:04 17° ENE visible
02 Dec 8.1 03:09:57 10° NW 03:21:51 59° NE 03:21:51 59° NE visible
02 Dec 9.0 05:23:02 10° NW 05:29:37 36° WNW 05:29:37 36° WNW visible
03 Dec 9.0 00:18:42 10° NW 00:29:18 31° N 00:39:32 10° ENE visible
03 Dec 8.2 02:33:43 10° NW 02:45:37 50° NE 02:47:18 48° ENE visible
03 Dec 8.6 04:46:46 10° NW 04:55:04 48° WNW 04:55:04 48° WNW visible
03 Dec 10.0 07:02:31 10° WNW 07:02:51 11° WNW 07:02:51 11° WNW visible
04 Dec 8.4 01:57:25 10° NW 02:09:00 43° NNE 02:12:48 36° ENE visible
04 Dec 8.2 04:10:35 10° NW 04:20:35 65° NW 04:20:35 65° NW visible
04 Dec 9.8 06:24:59 10° NW 06:28:22 17° WNW 06:28:22 17° WNW visible
05 Dec 8.6 01:21:00 10° NW 01:32:16 38° NNE 01:38:22 25° ENE visible
05 Dec 7.9 03:34:25 10° NW 03:46:09 82° N 03:46:09 82° N visible
05 Dec 9.4 05:48:06 10° NW 05:53:56 25° WNW 05:53:56 25° WNW visible
06 Dec 8.8 00:44:28 10° NW 00:55:27 35° NNE 01:04:00 16° ENE visible
06 Dec 7.9 02:58:16 10° NW 03:10:33 72° NE 03:11:47 68° E visible
06 Dec 9.0 05:11:33 10° NW 05:19:35 36° W 05:19:35 36° W visible
07 Dec 8.9 00:07:47 10° NW 00:18:32 32° NNE 00:28:58 10° ENE visible
07 Dec 8.1 02:22:05 10° NW 02:34:14 60° NE 02:37:31 48° E visible
07 Dec 8.6 04:35:10 10° NW 04:45:19 49° W 04:45:19 49° W visible
08 Dec 8.3 01:45:51 10° NW 01:57:46 51° NE 02:03:21 32° E visible
08 Dec 8.2 03:58:54 10° NW 04:10:47 64° WSW 04:11:10 63° SW visible
08 Dec 9.8 06:14:58 10° WNW 06:18:58 14° W 06:18:58 14° W visible
09 Dec 8.4 01:09:33 10° NW 01:21:12 44° NNE 01:29:18 20° E visible
09 Dec 8.0 03:22:42 10° NW 03:34:52 78° WSW 03:37:08 64° S visible
09 Dec 9.5 05:37:15 10° NW 05:44:58 21° W 05:44:58 21° W visible
